Preview of NWS' New Version of Forecast
This preview is not operational and should not be used for support decisions.

Regional Weather Roundup (RWR)

Issued by National Weather Service (NWS)

                            
000
ASUS42 KTBW 250216
RWRFL 
FLORIDA REGIONAL WEATHER ROUNDUP
NATIONAL WEATHER SERVICE TAMPA BAY RUSKIN FL
1000 PM EDT SUN MAR 24 2019

NOTE: "FAIR" INDICATES FEW OR NO CLOUDS BELOW 12,000 FEET WITH NO
SIGNIFICANT WEATHER AND/OR OBSTRUCTIONS TO VISIBILITY.

FLZ001>010-012>015-112-114-115-250300-
PANHANDLE FLORIDA
  
CITY           SKY/WX    TMP DP  RH WIND       PRES   REMARKS
PENSACOLA      FAIR      61  57  87 CALM      30.16S                  
PENSACOLA NAS  FAIR      56  55  97 SW3       30.16F                  
MILTON NAS     FAIR      58  54  86 SE3       30.16F                  
CRESTVIEW      FAIR      52  45  77 CALM      30.18R                  
DUKE FIELD     FAIR      53  46  76 S3        30.17R                  
VALPARAISO     FAIR      57  53  85 CALM      30.16R                  
PANAMA CITY    FAIR      56  51  84 CALM      30.17R                  
TYNDALL AFB    FAIR      61  58  92 S5        30.17S                  
APALACHICOLA   FAIR      59  57  93 CALM      30.17S                  

STATION/POSITION SKY/WX   TEMP    WIND        PRES    WAVE   SWELL
                          AIR SEA DIR/SP/G            HT/PER HT/PER
                          (F)     (DEG/KT/KT) (MB)    (FT/S) (FT/S)
30.1N   87.6W                                 1021.5F   1
29.2N   88.2W                     140/  6/  8 1021.9R   1/ 4
PANAMA CITY BEAC           64 66  170/  4/  5 1022.0R
TOWER C                    65     200/  5/  5 1022.1R

$$
FLZ011-016>038-118-127-128-134-139-239-250300-
NORTH FLORIDA
  
CITY           SKY/WX    TMP DP  RH WIND       PRES   REMARKS
MARIANNA       FAIR      61  48  62 SW8       30.16R                  
TALLAHASSEE    FAIR      59  54  83 SW5       30.16S                  
PERRY          FAIR      59  55  85 CALM      30.18R                  
LIVE OAK       MOCLDY    59  52  77 CALM      30.17R                  
CROSS CITY     FAIR      59  54  82 CALM      30.17S                  
LAKE CITY      FAIR      63  52  67 E5        30.18R                  
GAINESVILLE    FAIR      69  53  56 CALM      30.20R                  
WILLISTON        N/A    N/A N/A N/A MISG        N/A                   
PALATKA        MOCLDY   N/A N/A N/A SE7       30.18S                  
MAYPORT NAS    FAIR      67  57  70 SE9       30.18S                  
JACKSONVILLE   FAIR      62  53  72 CALM      30.17R                  
JAX NAS        FAIR      68  54  60 SE7       30.18S                  
JAX CECIL      NOT AVBL                                               
FERNANDINA BEA FAIR      65  60  86 SE5       30.18R                  
ST AUGUSTINE   FAIR      63  59  87 SE8       30.19S                  
PALM COAST     FAIR      64  58  83 SE6       30.18S                  

STATION/POSITION SKY/WX   TEMP    WIND        PRES    WAVE   SWELL
                          AIR SEA DIR/SP/G            HT/PER HT/PER
                          (F)     (DEG/KT/KT) (MB)    (FT/S) (FT/S)
SHELL POINT      NOT AVBL
KEATON BEACH               62      70/  2/  3 1021.9R
CEDAR KEY                  68     290/  3/  5 1021.7R
FERNANDINA                 67 65  120/  4/  5 1022.6R
30.7N   81.3W                 64                N/A     3/ 9
MAYPORT                    66 65  140/  5/  7 1021.7F
31.4N   80.9W              65 63  150/ 10/ 12 1022.1R   2/ 8   2/ 8
ST AUGUSTINE               66 66  140/  9/ 10 1022.1R

$$
FLZ040-043>046-052-053-057-058-063-144-250300-
INTERIOR CENTRAL FLORIDA
  
CITY           SKY/WX    TMP DP  RH WIND       PRES   REMARKS
OCALA          FAIR      65  54  67 CALM      30.18R                  
LEESBURG       FAIR      70  57  63 SE9       30.18R                  
SANFORD        FAIR      65  58  78 SE6       30.19R                  
ORLANDO EXEC   MOCLDY    69  58  67 SE9       30.18S                  
ORLANDO INTL   FAIR      68  56  65 SE9       30.19R                  
KISSIMMEE      FAIR      69  59  70 SE8       30.20R                  
WINTER HAVEN   FAIR      70  59  68 E10       30.19R                  
LAKELAND       CLEAR     68  57  68 CALM      30.18R                  
BARTOW         FAIR      70  57  64 E9        30.17R                  
SEBRING        FAIR      68  59  73 SE9       30.19R                  
OKEECHOBEE     FAIR      63  59  88 E3        30.19R                  

$$
FLZ041-047-054-059-064-141-147-250300-
EAST CENTRAL FLORIDA
  
CITY           SKY/WX    TMP DP  RH WIND       PRES   REMARKS
DAYTONA BEACH  FAIR      67  60  78 VRB3      30.19S                  
DELAND         FAIR      66  57  72 SE7       30.18S                  
NEW SMYRNA BEA CLEAR     64  57  77 SE5       30.20S                  
JFK SPACE CTR  FAIR      66  59  78 SE6       30.19R                  
CAPE CANAVERAL FAIR      63  59  87 SE6       30.18S                  
PATRICK AFB    FAIR      69  64  86 SE7       30.19R                  
MELBOURNE      FAIR      71  58  63 SE7       30.19R                  
VERO BEACH     FAIR      67  60  78 E7        30.19S                  
STUART         FAIR      70  59  68 E5        30.21R                  

STATION/POSITION SKY/WX   TEMP    WIND        PRES    WAVE   SWELL
                          AIR SEA DIR/SP/G            HT/PER HT/PER
                          (F)     (DEG/KT/KT) (MB)    (FT/S) (FT/S)
28.5N   80.2W              74     130/ 12/ 14 1022.8S   3/11   2/11
28.9N   78.5W              73 74  110/ 16/ 17 1023.8R   4/10   3/10
TRIDENT PIER               67 68  100/  3/  4 1023.4R
28.4N   80.5W                 69                N/A     2/ 4
27.5N   80.2W                 71                N/A     3/10   2/11

$$
FLZ050-056-061-142-242-148-248-149-249-151-251-155-255-
160-260-250300-
WEST CENTRAL FLORIDA
  
CITY           SKY/WX    TMP DP  RH WIND       PRES   REMARKS
CRYSTAL RIVER  FAIR      59  54  82 CALM      30.17S                  
INVERNESS      FAIR      61  55  82 CALM      30.18R                  
BROOKSVILLE    FAIR      62  54  74 E5        30.18S                  
CLEARWATER AIR MOCLDY    66  55  68 N3        30.18R                  
ST PETE CLEARW FAIR      67  58  72 N5        30.17R                  
TAMPA INTL     FAIR      68  56  65 N5        30.18R                  
TAMPA EXEC     FAIR      63  57  82 CALM      30.18R                  
PLANT CITY     FAIR      68  57  68 CALM      30.20R                  
MACDILL AFB    FAIR      69  58  68 NW6       30.17R                  
PETER O KNIGHT CLOUDY    72  59  64 CALM      30.18R                  
ST PETERSBURG  FAIR      70  59  68 N7        30.15R                  
SARASOTA       FAIR      69  59  70 N5        30.15R                  
VENICE         FAIR      72  64  78 NW7       30.18R                  

STATION/POSITION SKY/WX   TEMP    WIND        PRES    WAVE   SWELL
                          AIR SEA DIR/SP/G            HT/PER HT/PER
                          (F)     (DEG/KT/KT) (MB)    (FT/S) (FT/S)
27.3N   84.2W                 72                N/A     1/ 4
CLEARWATER BEACH           68 72   10/  7/  8 1021.7R
MIDDLE TAMPA BAY           71      20/  9/ 10 1021.6R
VENICE                     72 71   10/  7/  8 1021.6R

$$
FLZ066-069-070-075>078-162-262-165-265-250300-
SOUTHWEST FLORIDA AND KEYS
  
CITY           SKY/WX    TMP DP  RH WIND       PRES   REMARKS
PUNTA GORDA    FAIR      69  59  70 E7        30.18R                  
FT MYERS       FAIR      71  60  68 E3        30.16R                  
SOUTHWEST INTL FAIR      71  60  68 E5        30.17R                  
NAPLES         FAIR      74  62  66 E3        30.16R                  
MARCO ISLAND   CLOUDY    70  62  76 SE7       30.18R                  
IMMOKALEE      FAIR      66  61  82 E6        30.15R                  
MARATHON       FAIR      77  63  61 E7        30.15R                  
KEY WEST NAS   CLOUDY    76  65  68 E9        30.15R                  
KEY WEST INTL  MOCLDY    75  66  73 E7        30.15R                  

STATION/POSITION SKY/WX   TEMP    WIND        PRES    WAVE   SWELL
                          AIR SEA DIR/SP/G            HT/PER HT/PER
                          (F)     (DEG/KT/KT) (MB)    (FT/S) (FT/S)
NAPLES                     75 73  110/  1/  5 1021.3R
DRY TORTUGAS               75     110/ 20/ 21 1020.5R
SAND KEY                   75                 1020.5R
SOMBRERO KEY               76                 1020.2R

$$
FLZ067-068-071>074-168-172>174-250300-
SOUTHEAST FLORIDA 
  
CITY           SKY/WX    TMP DP  RH WIND       PRES   REMARKS
W PALM BEACH   FAIR      73  59  61 E9        30.19R                  
BOCA RATON     CLEAR     73  61  64 E7        30.18R                  
FT LAUDER-EXEC FAIR      74  59  59 E7        30.17R                  
FT LAUDERDALE  FAIR      74  59  59 E12       30.17R                  
POMPANO BEACH  FAIR      75  59  57 E9        30.17R                  
PEMBROKE PINES   N/A     72  60  66 E6        30.18S                  
OPA LOCKA      FAIR      72  61  68 E6        30.18R                  
MIAMI          FAIR      73  60  63 E10       30.17R                  
WEST KENDALL   FAIR      71  62  73 E7        30.17R                  
HOMESTEAD      FAIR      72  63  72 E7        30.16R                  

STATION/POSITION SKY/WX   TEMP    WIND        PRES    WAVE   SWELL
                          AIR SEA DIR/SP/G            HT/PER HT/PER
                          (F)     (DEG/KT/KT) (MB)    (FT/S) (FT/S)
PORT EVERGLADES            75     100/  4/ 10 1021.8R
VIRGINIA KEY               75 75   70/ 10/ 14 1020.8R
LAKE WORTH                 74 76  100/  9/ 10 1023.1R
FOWEY ROCKS                74 77   90/ 15/ 16 1022.0R
SETTLEMENT POINT           74     110/  8/ 10 1022.8R

$$